Notices

What's New in latest Release from April 7th, 2021:

- Updated Glossary, including Speed of Maximum Gust, and Total Hourly Precipitation

- Updated national and regional climate services offices contacts and prices information

- Addition of station inventory lists for 1981-2010, 1971-2000, and 1961-1990 Normals.

If you haven't already, please take our survey and provide feedback about our website: https://eccc.sondage-survey.ca/f/LanguageSelection.aspx?s=442ca660-fcf1-47c0-95a9-59707d6fd709

Hourly Data Report for January 11, 2021

EDMUNDSTON
NEW BRUNSWICK
Current Station Operator: ECCC - MSC

47°25'00.000" N
68°19'28.040" W
154.20 m
8101303
71590
ERM

Download Data

Hourly Data (January 2021)
Hourly Data Report for January 11, 2021
TIME
LST
Temp Definition
°C
Dew Point Definition
°C
Rel Hum Definition
%
Precip. Amount Definition
mm

Wind Dir Definition
10's deg

Wind Spd Definition
km/h
Visibility Definition
km
Stn Press Definition
kPa
Hmdx Definition


Wind Chill Definition


Weather Definition


00:00 -16.8 LegendMM LegendMM 0.0 28 3   100.25   -19 LegendNANA
01:00 -16.1 LegendMM LegendMM 0.0 10 1   100.27   -17 LegendNANA
02:00 -15.3 LegendMM LegendMM 0.0 26 2   100.29   -17 LegendNANA
03:00 -14.8 LegendMM LegendMM 0.0 34 2   100.30   -16 LegendNANA
04:00 -17.7 LegendMM LegendMM 0.0 35 3   100.27   -20 LegendNANA
05:00 -19.3 LegendMM LegendMM 0.0 32 1   100.25   -20 LegendNANA
06:00 -20.3 LegendMM LegendMM 0.0   0   100.26     LegendNANA
07:00 -20.8 LegendMM LegendMM 0.0 0 1   100.27   -22 LegendNANA
08:00 -21.3 LegendMM LegendMM 0.0 36 1   100.31   -22 LegendNANA
09:00 -21.0 LegendMM LegendMM 0.0   0   100.37     LegendNANA
10:00 -16.1 LegendMM LegendMM 0.0 23 1   100.42   -17 LegendNANA
11:00 -11.9 LegendMM LegendMM 0.0 0 1   100.40   -13 LegendNANA
12:00 -7.8 LegendMM LegendMM 0.0 13 4   100.25   -10 LegendNANA
13:00 -5.3 LegendMM LegendMM 0.0 10 2   100.17   -6 LegendNANA
14:00 -2.9 LegendMM LegendMM 0.0 16 4   100.10   -4 LegendNANA
15:00 -2.7 LegendMM LegendMM 0.0 19 8   100.07   -6 LegendNANA
16:00 -2.8 LegendMM LegendMM 0.0 19 6   100.05   -5 LegendNANA
17:00 -6.3 LegendMM LegendMM 0.0 18 3   100.04   -8 LegendNANA
18:00 -10.5 LegendMM LegendMM 0.0 35 5   100.03   -14 LegendNANA
19:00 -10.7 LegendMM LegendMM 0.0 1 1   100.04   -11 LegendNANA
20:00 -8.7 LegendMM LegendMM 0.0 34 1   99.99   -9 LegendNANA
21:00 -8.0 LegendMM LegendMM 0.0 26 2   99.98   -9 LegendNANA
22:00 -7.7 LegendMM LegendMM 0.0 0 1   99.94   -8 LegendNANA
23:00 -7.4 LegendMM LegendMM 0.0   0   99.89     LegendNANA

Notes on Data Quality.

Legend

  • E = Estimated
  • M = Missing
  • NA = Not Available*
  • [empty] = Indicates an unobserved value
Date modified: